Zurück zum Katalog

SERT3

AktivWissenschaftSSO
NORAD 68499·PAYLOAD·🇺🇸 United States

Gestartet Mar 30, 2026 von Vandenberg Space Force Base

Loading…

Nächste Überflüge (nächste 24 Stunden)

TLE

AktuellSource: Space-Track

Epoche: Sep 14, 2026, 14:47 UTC

1 68499U 26067CM  26257.61606347  .00001249  00000-0  12944-3 0  9991
2 68499  97.7671 214.4380 0002890  95.9518 264.2030 14.91772552 25055

Verfolge SERT3 in Echtzeit mit AllMySat

Download on the App Store